Location: Helion Bumpstead
(52.0500°N, 0.4000°E)
Time: 22:14:48
(UTC+00:00)

Cosmos 1513 Rocket - Pass Details

Date: 15 November 2025
Orbit: 939 x 1007 km, 82.9° (Epoch: 06 December)

Event Time Altitude Azimuth Distance (km) Brightness Sun altitude
Rises 05:21:02 0° 348° (NNW) 3,749 7.4 -17.9°
Reaches altitude 10° 05:23:35 10° 347° (NNW) 2,792 6.7 -17.5°
Maximum altitude 05:30:00 76° 264° (W) 1,030 4.5 -16.5°
Drops below altitude 10° 05:36:17 10° 179° (S) 2,740 7.0 -15.5°
Sets 05:38:46 0° 178° (S) 3,675 7.7 -15.2°
